Location: Katzenstein
(51.7484°N, 10.2155°E)
Time: 09:54:46
(UTC+00:00)

NOAA 6 - Pass Details

Date: 17 February 2020
Orbit: 771 x 788 km, 98.7° (Epoch: 09 April)

Event Time Altitude Azimuth Distance (km) Brightness Sun altitude
Rises 05:33:29 0° 13° (NNE) 3,295 7.4 -9.5°
Reaches altitude 10° 05:35:49 10° 11° (NNE) 2,360 6.6 -9.1°
Maximum altitude 05:41:00 69° 290° (WNW) 841 4.0 -8.3°
Drops below altitude 10° 05:46:07 10° 208° (SSW) 2,334 6.3 -7.5°
Sets 05:48:25 0° 206° (SSW) 3,256 7.1 -7.2°
